Showing default

OPS 7034 (TRANSIT 18), 3133

Orbit data source: Space-Track

OPS 7034 (TRANSIT 18), 3133 is a payload satellite owned by USN NAVAIR (US) in LEO that was launched on Sat, 02 Mar 1968 UTC via an SCOUT A launch vehicle from the Air Force Western Test Range (AFWTR). Payload-class satellites include a variety of spacecraft equipped with specific instruments for various scientific and technological missions. These include communications satellites like Starlink; space stations such as the ISS; scientific satellites like the Hubble; Earth observation satellites from companies like Planet Labs, Umbra, and HawkEye 360; GPS; miniature CubeSats for education and research; and military/defense satellites.

Loading next visibility...
Identifier
3133, 1968-012A
Orbit
LEO
Country
Flag of USUS
Related business
Manufacturer
RCA/East Windsor
Mission
Spacecraft
Bus & Motor
TRANSIT 5, Unknown motor
Mass
60 kg wet, 60 kg dry
Launch date (UTC)
1968-03-02 (58 years ago)
Launch vehicle
SCOUT A
Launch site
Air Force Western Test Range (AFWTR)
Object type
Payload
Rocket body
Debris
Shape & HBR
Unknown
Radar Cross Section
Large (>1 m²)

Expand to show TLE details & history
Last TLE update: 12 hours ago

TLE from 12 hours ago
0 OPS 7034 (TRANSIT 18)
1 03133U 68012A   26123.47772816  .00000087  00000-0  11625-3 0  9996
2 03133  90.0238 273.9862 0075668 119.4083 305.9217 13.51601220588334
Epoch: 2026-05-03T11:27Z
TLE epoch observation values (Epoch: 2026-05-03T11:27:55.713Z)
Latitude
64.70675°
Longitude
-119.42675°
Altitude
1,044.847 km
Speed
7.352 km/s
True Right ascension
18h 15m 44s
True Declination
64° 34' 44"
Sunlit
Object was in daylight at epoch
Visualization orbit readout
Latitude
Unknown
Longitude
Unknown
Altitude
Unknown
Speed
Unknown
Apparent Right ascension
Unknown
Apparent Declination
Unknown
Sunlit
N/A
Visualization observer readout
Local Sidereal Time
07:25:09
Azimuth
Unknown
Elevation
Unknown
Doppler factor
Unknown
Orbital elements
Apogee altitude
1,119.729 km
Perigee altitude
1,007.112 km
Semi-major axis
7,441.557 km
Eccentricity
0.00757
Inclination
90.0238°
RAAN
273.9862°
Arg. of periapsis
119.4083°
True anomaly
305.21561°
Mean anomaly
305.9217°
Eccentric anomaly
305.56905°
Mean motion
3.38102 °/min
Orbital period
106.48 mins
BSTAR
0.00011625
Loading maneuver chart data...
Computing Atmospheric mass density...
Loading historical data...
Loading historical data...
Loading historical data...
Loading historical data...
Loading historical data...
Loading historical data...
Loading historical data...

Documentation

Showing up to 5 results
|